Location: Newark
(37.8333°N, 119.5000°W)
Time: 18:06:47
(UTC+00:00)

Tiros 1 despin weight - Pass Details

Date: 20 August 2019
Orbit: 594 x 643 km, 48.2° (Epoch: 14 October)

Event Time Altitude Azimuth Distance (km) Brightness Sun altitude
Rises 06:08:09 0° 182° (S) 2,813 - -33.1°
Reaches altitude 10° 06:11:55 10° 149° (SSE) 1,924 - -33.5°
Maximum altitude 06:13:24 12° 129° (SE) 1,830 - -33.6°
Drops below altitude 10° 06:14:53 10° 109° (ESE) 1,935 - -33.8°
Sets 06:18:42 0° 76° (ENE) 2,855 - -34.2°
